BAW5DX OEJN-EGKK

Flight info

Callsign BAW5DX
Flight time 5h 45m
Altitude 36000
Route BOMOX M686 OTEMO T55 KUNKI P751 MMA L613 ITEXO/N0486F380 L613 TANSA DCT KOR DCT ELVAS DCT KRK UL53 OLGAT DCT NUCRE/N0483F370 DCT XAPAT/N0481F380 DCT UTAME DCT RESIA DCT ELMUR DCT RIPUS DCT DITON DCT HOC DCT LUL DCT RLP DCT ROTSI DCT KOTUN DCT NINAL DCT KESAX DCT KUNAV
Aircraft A35K/H-SDE2E3GHIJ3J4J5LM1ORWXY/LB1D1

Departure

Time 2026-05-05 09:09
Airport King Abdulaziz International Airport (OEJN)

Arrival

Time 2026-05-05 14:55
Airport London Gatwick Airport (EGKK)
Time Latitude Longitude Altitude Speed Heading
2026-05-05 08:48 21.66987 39.16648 44 ft 0 kts 12°
2026-05-05 09:01 21.66977 39.16646 42 ft 3 kts 12°
2026-05-05 09:01 21.66957 39.16642 41 ft 3 kts
2026-05-05 09:02 21.66938 39.16644 40 ft 3 kts 342°
2026-05-05 09:02 21.66921 39.16651 40 ft 2 kts 334°
2026-05-05 09:02 21.66906 39.16659 41 ft 3 kts 335°
2026-05-05 09:02 21.66890 39.16669 39 ft 3 kts 319°
2026-05-05 09:03 21.66879 39.16681 40 ft 0 kts 303°
2026-05-05 09:03 21.66886 39.16667 39 ft 6 kts 295°
2026-05-05 09:03 21.66890 39.16653 41 ft 0 kts 284°
2026-05-05 09:05 21.66890 39.16651 41 ft 1 kts 284°
2026-05-05 09:05 21.66896 39.16620 42 ft 7 kts 279°
2026-05-05 09:05 21.66893 39.16552 43 ft 11 kts 256°
2026-05-05 09:05 21.66831 39.16511 43 ft 9 kts 175°
2026-05-05 09:06 21.66765 39.16532 43 ft 12 kts 161°
2026-05-05 09:06 21.66672 39.16568 43 ft 16 kts 159°
2026-05-05 09:06 21.66553 39.16616 43 ft 20 kts 160°
2026-05-05 09:06 21.66414 39.16670 43 ft 23 kts 160°
2026-05-05 09:07 21.66257 39.16730 44 ft 24 kts 160°
2026-05-05 09:07 21.66129 39.16731 43 ft 13 kts 227°
2026-05-05 09:07 21.66130 39.16676 43 ft 8 kts 288°
2026-05-05 09:07 21.66155 39.16572 41 ft 19 kts 274°
2026-05-05 09:08 21.66179 39.16471 40 ft 11 kts 316°
2026-05-05 09:08 21.66249 39.16436 40 ft 11 kts 333°
2026-05-05 09:08 21.66320 39.16408 41 ft 11 kts 339°
2026-05-05 09:08 21.66471 39.16345 42 ft 50 kts 339°
2026-05-05 09:09 21.67004 39.16136 42 ft 112 kts 340°
2026-05-05 09:09 21.67899 39.15789 39 ft 163 kts 340°
2026-05-05 09:09 21.69068 39.15319 355 ft 183 kts 339°
2026-05-05 09:09 21.70226 39.14807 1115 ft 180 kts 336°
2026-05-05 09:10 21.71403 39.14270 1689 ft 191 kts 337°
2026-05-05 09:10 21.72694 39.13738 2015 ft 209 kts 340°
2026-05-05 09:10 21.74154 39.13207 2302 ft 233 kts 341°
2026-05-05 09:10 21.75745 39.12628 2765 ft 247 kts 340°
2026-05-05 09:11 21.77390 39.12008 3418 ft 253 kts 340°
2026-05-05 09:11 21.79066 39.11363 4062 ft 259 kts 340°
2026-05-05 09:11 21.80774 39.10697 4687 ft 263 kts 339°
2026-05-05 09:11 21.82501 39.10020 5337 ft 266 kts 339°
2026-05-05 09:12 21.84250 39.09331 5826 ft 269 kts 339°
2026-05-05 09:12 21.86010 39.08635 5986 ft 270 kts 339°
2026-05-05 09:12 21.87784 39.07935 6002 ft 271 kts 339°
2026-05-05 09:12 21.89550 39.07215 6000 ft 272 kts 338°
2026-05-05 09:13 21.91293 39.06423 6000 ft 272 kts 336°
2026-05-05 09:13 21.93026 39.05600 6001 ft 272 kts 335°
2026-05-05 09:13 21.94754 39.04771 6000 ft 272 kts 335°
2026-05-05 09:13 21.96482 39.03943 6002 ft 272 kts 335°
2026-05-05 09:14 21.98195 39.03123 6000 ft 272 kts 335°
2026-05-05 09:14 21.99924 39.02296 6003 ft 272 kts 335°
2026-05-05 09:14 22.01653 39.01469 6038 ft 272 kts 335°
2026-05-05 09:14 22.03387 39.00638 6359 ft 274 kts 335°
2026-05-05 09:15 22.04901 38.99914 6943 ft 275 kts 335°
2026-05-05 09:15 22.06655 38.99074 7587 ft 276 kts 335°
2026-05-05 09:15 22.08415 38.98232 7929 ft 277 kts 335°
2026-05-05 09:15 22.10186 38.97384 7995 ft 279 kts 335°
2026-05-05 09:16 22.11963 38.96533 8002 ft 279 kts 335°
2026-05-05 09:16 22.13743 38.95681 8001 ft 280 kts 335°
2026-05-05 09:16 22.15519 38.94830 7999 ft 280 kts 335°
2026-05-05 09:16 22.17283 38.93986 8007 ft 280 kts 335°
2026-05-05 09:17 22.19064 38.93134 8234 ft 281 kts 335°
2026-05-05 09:17 22.20866 38.92273 8811 ft 283 kts 335°
2026-05-05 09:17 22.22667 38.91412 9509 ft 284 kts 335°
2026-05-05 09:17 22.24477 38.90527 10164 ft 287 kts 333°
2026-05-05 09:18 22.26144 38.89265 10462 ft 302 kts 313°
2026-05-05 09:18 22.27396 38.87386 10727 ft 317 kts 301°
2026-05-05 09:18 22.28518 38.85267 11007 ft 331 kts 299°
2026-05-05 09:18 22.29659 38.83049 11278 ft 345 kts 299°
2026-05-05 09:19 22.30855 38.80747 11539 ft 358 kts 299°
2026-05-05 09:19 22.32107 38.78361 11801 ft 370 kts 299°
2026-05-05 09:19 22.33380 38.75951 12197 ft 377 kts 300°
2026-05-05 09:19 22.34687 38.73481 12671 ft 381 kts 300°
2026-05-05 09:20 22.36009 38.70986 13165 ft 384 kts 300°
2026-05-05 09:20 22.37345 38.68466 13652 ft 387 kts 300°
2026-05-05 09:20 22.38689 38.65930 14125 ft 390 kts 300°
2026-05-05 09:20 22.40040 38.63382 14605 ft 393 kts 300°
2026-05-05 09:21 22.41402 38.60810 15082 ft 395 kts 300°
2026-05-05 09:21 22.42773 38.58222 15545 ft 398 kts 300°
2026-05-05 09:21 22.44154 38.55612 16012 ft 401 kts 300°
2026-05-05 09:21 22.45539 38.52994 16468 ft 403 kts 300°
2026-05-05 09:22 22.46940 38.50345 16910 ft 406 kts 300°
2026-05-05 09:22 22.48364 38.47692 17345 ft 409 kts 301°
2026-05-05 09:22 22.50029 38.45195 17759 ft 412 kts 310°
2026-05-05 09:22 22.52063 38.43002 18181 ft 414 kts 317°
2026-05-05 09:23 22.54252 38.40970 18592 ft 417 kts 320°
2026-05-05 09:23 22.56500 38.39026 18994 ft 419 kts 322°
2026-05-05 09:23 22.58811 38.37085 19378 ft 422 kts 322°
2026-05-05 09:23 22.61145 38.35134 19751 ft 424 kts 322°
2026-05-05 09:24 22.63481 38.33166 20136 ft 427 kts 322°
2026-05-05 09:24 22.65817 38.31178 20503 ft 429 kts 321°
2026-05-05 09:24 22.68162 38.29164 20865 ft 431 kts 321°
2026-05-05 09:24 22.70512 38.27133 21223 ft 434 kts 321°
2026-05-05 09:25 22.72873 38.25087 21578 ft 436 kts 321°
2026-05-05 09:25 22.75249 38.23024 21929 ft 438 kts 321°
2026-05-05 09:25 22.77631 38.20955 22276 ft 440 kts 321°
2026-05-05 09:25 22.80029 38.18871 22619 ft 443 kts 321°
2026-05-05 09:26 22.82436 38.16780 22957 ft 445 kts 321°
2026-05-05 09:26 22.84860 38.14674 23290 ft 447 kts 321°
2026-05-05 09:26 22.87290 38.12562 23620 ft 449 kts 321°
2026-05-05 09:26 22.89737 38.10434 23939 ft 451 kts 321°
2026-05-05 09:27 22.92195 38.08296 24263 ft 454 kts 321°
2026-05-05 09:27 22.94665 38.06147 24573 ft 456 kts 321°
2026-05-05 09:27 22.97115 38.04014 24886 ft 458 kts 321°
2026-05-05 09:27 22.99639 38.01815 25195 ft 460 kts 321°
2026-05-05 09:28 23.02133 37.99642 25503 ft 462 kts 321°
2026-05-05 09:28 23.04618 37.97474 25797 ft 464 kts 321°
2026-05-05 09:28 23.07139 37.95275 26097 ft 466 kts 321°
2026-05-05 09:28 23.09704 37.93036 26389 ft 468 kts 321°
2026-05-05 09:29 23.12218 37.90841 26680 ft 470 kts 321°
2026-05-05 09:29 23.14774 37.88607 26988 ft 473 kts 321°
2026-05-05 09:29 23.17350 37.86356 27281 ft 475 kts 321°
2026-05-05 09:29 23.19933 37.84096 27573 ft 477 kts 321°
2026-05-05 09:30 23.21647 37.82597 27764 ft 478 kts 321°
2026-05-05 09:30 23.24239 37.80328 28045 ft 480 kts 321°
2026-05-05 09:30 23.26846 37.78044 28322 ft 482 kts 321°
2026-05-05 09:30 23.29462 37.75752 28594 ft 484 kts 321°
2026-05-05 09:31 23.32092 37.73446 28857 ft 486 kts 321°
2026-05-05 09:31 23.34735 37.71128 29114 ft 488 kts 321°
2026-05-05 09:31 23.37380 37.68805 29368 ft 490 kts 321°
2026-05-05 09:31 23.40037 37.66470 29617 ft 492 kts 321°
2026-05-05 09:32 23.42704 37.64124 29864 ft 493 kts 321°
2026-05-05 09:32 23.45375 37.61774 30181 ft 493 kts 321°
2026-05-05 09:32 23.48039 37.59428 30566 ft 492 kts 321°
2026-05-05 09:32 23.50702 37.57083 30934 ft 491 kts 321°
2026-05-05 09:33 23.53318 37.54778 31290 ft 490 kts 321°
2026-05-05 09:33 23.55971 37.52438 31640 ft 490 kts 321°
2026-05-05 09:33 23.58618 37.50103 31989 ft 489 kts 321°
2026-05-05 09:33 23.61261 37.47770 32327 ft 488 kts 321°
2026-05-05 09:34 23.63899 37.45441 32654 ft 488 kts 321°
2026-05-05 09:34 23.66537 37.43110 32970 ft 487 kts 321°
2026-05-05 09:34 23.69168 37.40784 33289 ft 486 kts 321°
2026-05-05 09:34 23.71799 37.38457 33600 ft 486 kts 321°
2026-05-05 09:35 23.74421 37.36136 33908 ft 485 kts 321°
2026-05-05 09:35 23.79655 37.31500 34501 ft 484 kts 321°
2026-05-05 09:35 23.82267 37.29184 34789 ft 483 kts 321°
2026-05-05 09:36 23.84870 37.26876 35073 ft 483 kts 321°
2026-05-05 09:36 23.87481 37.24558 35366 ft 482 kts 321°
2026-05-05 09:36 23.90082 37.22249 35644 ft 481 kts 321°
2026-05-05 09:36 23.92683 37.19938 35905 ft 481 kts 321°
2026-05-05 09:37 23.95275 37.17635 36163 ft 481 kts 321°
2026-05-05 09:37 23.97875 37.15322 36414 ft 480 kts 321°
2026-05-05 09:37 24.00467 37.13016 36631 ft 480 kts 321°
2026-05-05 09:37 24.03062 37.10706 36849 ft 480 kts 321°
2026-05-05 09:38 24.05648 37.08403 37056 ft 480 kts 321°
2026-05-05 09:38 24.08241 37.06091 37254 ft 480 kts 320°
2026-05-05 09:38 24.10805 37.03806 37441 ft 480 kts 320°
2026-05-05 09:38 24.13400 37.01490 37634 ft 481 kts 320°
2026-05-05 09:39 24.15989 36.99179 37815 ft 481 kts 320°
2026-05-05 09:39 24.18584 36.96861 37953 ft 481 kts 320°
2026-05-05 09:39 24.23806 36.92193 38002 ft 488 kts 320°
2026-05-05 09:40 24.29061 36.87491 38000 ft 487 kts 320°
2026-05-05 09:40 24.34314 36.82786 38000 ft 487 kts 320°
2026-05-05 09:41 24.39526 36.78112 38000 ft 487 kts 320°
2026-05-05 09:41 24.44765 36.73408 38000 ft 487 kts 320°
2026-05-05 09:42 24.50009 36.68695 38000 ft 487 kts 320°
2026-05-05 09:42 24.55256 36.63974 38000 ft 487 kts 320°
2026-05-05 09:43 24.60202 36.58902 37999 ft 486 kts 309°
2026-05-05 09:43 24.63652 36.52609 38002 ft 486 kts 292°
2026-05-05 09:44 24.65985 36.45630 38000 ft 486 kts 288°
2026-05-05 09:44 24.68109 36.38574 38000 ft 486 kts 288°
2026-05-05 09:45 24.70237 36.31516 38000 ft 486 kts 288°
2026-05-05 09:45 24.72402 36.24461 38000 ft 486 kts 289°
2026-05-05 09:46 24.74575 36.17422 38000 ft 486 kts 289°
2026-05-05 09:46 24.76751 36.10367 38000 ft 486 kts 288°
2026-05-05 09:47 24.78907 36.03359 38000 ft 486 kts 288°
2026-05-05 09:47 24.81072 35.96305 38000 ft 486 kts 288°
2026-05-05 09:48 24.83231 35.89256 38000 ft 486 kts 288°
2026-05-05 09:48 24.85389 35.82198 38000 ft 486 kts 288°
2026-05-05 09:49 24.87545 35.75132 38000 ft 486 kts 288°
2026-05-05 09:49 24.89696 35.68068 38000 ft 486 kts 288°
2026-05-05 09:50 24.91846 35.60996 38000 ft 486 kts 288°
2026-05-05 09:50 24.93981 35.53958 38000 ft 486 kts 288°
2026-05-05 09:51 24.96122 35.46890 38000 ft 486 kts 288°
2026-05-05 09:51 24.98259 35.39820 38000 ft 486 kts 288°
2026-05-05 09:52 25.00394 35.32742 38000 ft 486 kts 288°
2026-05-05 09:52 25.02526 35.25662 38000 ft 486 kts 288°
2026-05-05 09:53 25.04681 35.18598 37997 ft 486 kts 291°
2026-05-05 09:53 25.07886 35.12106 38000 ft 486 kts 307°
2026-05-05 09:54 25.12446 35.06602 38000 ft 486 kts 315°
2026-05-05 09:54 25.17292 35.01375 38000 ft 487 kts 316°
2026-05-05 09:55 25.22165 34.96181 38000 ft 487 kts 315°
2026-05-05 09:55 25.27011 34.90951 38000 ft 487 kts 315°
2026-05-05 09:56 25.31836 34.85700 38000 ft 487 kts 315°
2026-05-05 09:56 25.36654 34.80439 38000 ft 487 kts 315°
2026-05-05 09:57 25.41473 34.75172 38000 ft 487 kts 315°
2026-05-05 09:57 25.46259 34.69937 38000 ft 487 kts 315°
2026-05-05 09:58 25.51079 34.64659 38000 ft 487 kts 315°
2026-05-05 09:58 25.55893 34.59382 38000 ft 487 kts 315°
2026-05-05 09:59 25.60600 34.53978 38000 ft 487 kts 311°
2026-05-05 09:59 25.65003 34.48257 38000 ft 487 kts 309°
2026-05-05 10:00 25.69318 34.42506 38000 ft 488 kts 310°
2026-05-05 10:00 25.73691 34.36746 38000 ft 488 kts 310°
2026-05-05 10:01 25.78088 34.31005 38000 ft 488 kts 310°
2026-05-05 10:01 25.82496 34.25260 38000 ft 488 kts 310°
2026-05-05 10:02 25.86897 34.19515 38000 ft 488 kts 310°
2026-05-05 10:02 25.91300 34.13758 38000 ft 489 kts 310°
2026-05-05 10:03 25.95668 34.08038 38000 ft 489 kts 310°
2026-05-05 10:03 26.00095 34.02235 38000 ft 489 kts 310°
2026-05-05 10:04 26.04465 33.96501 38000 ft 489 kts 310°
2026-05-05 10:04 26.08869 33.90713 38000 ft 489 kts 310°
2026-05-05 10:05 26.13266 33.84928 38000 ft 490 kts 310°
2026-05-05 10:05 26.17665 33.79131 38000 ft 490 kts 310°
2026-05-05 10:06 26.22063 33.73330 38000 ft 490 kts 310°
2026-05-05 10:06 26.26464 33.67517 38001 ft 491 kts 310°
2026-05-05 10:07 26.30864 33.61698 38000 ft 491 kts 310°
2026-05-05 10:07 26.35258 33.55879 38000 ft 490 kts 310°
2026-05-05 10:08 26.39651 33.50054 38000 ft 491 kts 310°
2026-05-05 10:08 26.44027 33.44243 38001 ft 492 kts 310°
2026-05-05 10:09 26.48422 33.38402 38000 ft 491 kts 310°
2026-05-05 10:09 26.52816 33.32553 38000 ft 491 kts 310°
2026-05-05 10:10 26.57203 33.26708 38000 ft 490 kts 310°
2026-05-05 10:10 26.61582 33.20864 38000 ft 490 kts 310°
2026-05-05 10:11 26.65956 33.15020 38000 ft 490 kts 309°
2026-05-05 10:11 26.70326 33.09174 38000 ft 489 kts 309°
2026-05-05 10:12 26.74689 33.03328 38000 ft 489 kts 309°
2026-05-05 10:12 26.79042 32.97490 38000 ft 489 kts 309°
2026-05-05 10:13 26.83399 32.91638 38000 ft 489 kts 309°
2026-05-05 10:13 26.87750 32.85786 38000 ft 489 kts 309°
2026-05-05 10:14 26.92094 32.79935 38000 ft 489 kts 309°
2026-05-05 10:14 26.96436 32.74080 38000 ft 488 kts 309°
2026-05-05 10:15 27.00779 32.68216 38000 ft 489 kts 309°
2026-05-05 10:15 27.05094 32.62381 38000 ft 489 kts 309°
2026-05-05 10:16 27.09440 32.56497 38000 ft 491 kts 309°
2026-05-05 10:16 27.13802 32.50584 38000 ft 491 kts 309°
2026-05-05 10:17 27.18155 32.44674 38000 ft 491 kts 309°
2026-05-05 10:17 27.22512 32.38751 38000 ft 491 kts 309°
2026-05-05 10:18 27.26856 32.32839 38000 ft 491 kts 309°
2026-05-05 10:18 27.30467 32.27897 38000 ft 491 kts 308°
2026-05-05 10:19 27.34678 32.21843 38000 ft 491 kts 307°
2026-05-05 10:19 27.38826 32.15736 38000 ft 491 kts 307°
2026-05-05 10:20 27.42979 32.09629 38000 ft 491 kts 307°
2026-05-05 10:20 27.47111 32.03573 38000 ft 490 kts 307°
2026-05-05 10:21 27.51294 31.97445 38000 ft 490 kts 307°
2026-05-05 10:21 27.55421 31.91393 38000 ft 490 kts 307°
2026-05-05 10:22 27.59572 31.85295 38000 ft 490 kts 307°
2026-05-05 10:22 27.63724 31.79187 38000 ft 490 kts 307°
2026-05-05 10:23 27.67863 31.73088 38000 ft 489 kts 307°
2026-05-05 10:23 27.72000 31.66985 38000 ft 489 kts 307°
2026-05-05 10:24 27.76132 31.60881 38000 ft 489 kts 307°
2026-05-05 10:24 27.80260 31.54774 38000 ft 489 kts 307°
2026-05-05 10:25 27.84383 31.48665 38000 ft 489 kts 307°
2026-05-05 10:25 27.88481 31.42585 38000 ft 489 kts 307°
2026-05-05 10:26 27.92594 31.36474 38000 ft 489 kts 307°
2026-05-05 10:26 27.96711 31.30349 38000 ft 489 kts 307°
2026-05-05 10:27 28.00823 31.24222 38000 ft 488 kts 307°
2026-05-05 10:27 28.04937 31.18083 38000 ft 488 kts 307°
2026-05-05 10:28 28.08937 31.11928 38000 ft 488 kts 304°
2026-05-05 10:28 28.12717 31.05537 38000 ft 488 kts 303°
2026-05-05 10:29 28.16445 30.99097 38000 ft 488 kts 303°
2026-05-05 10:29 28.20192 30.92675 38000 ft 488 kts 303°
2026-05-05 10:30 28.23930 30.86308 38000 ft 488 kts 303°
2026-05-05 10:30 28.27693 30.79904 38000 ft 488 kts 303°
2026-05-05 10:31 28.31454 30.73493 38000 ft 487 kts 303°
2026-05-05 10:31 28.35202 30.67092 38000 ft 487 kts 303°
2026-05-05 10:32 28.38951 30.60679 38000 ft 487 kts 303°
2026-05-05 10:32 28.42669 30.54310 38000 ft 487 kts 303°
2026-05-05 10:33 28.46410 30.47890 38000 ft 487 kts 303°
2026-05-05 10:33 28.50150 30.41463 38000 ft 487 kts 303°
2026-05-05 10:34 28.53889 30.35029 38000 ft 488 kts 303°
2026-05-05 10:34 28.57627 30.28585 38000 ft 488 kts 303°
2026-05-05 10:35 28.61361 30.22140 38000 ft 488 kts 303°
2026-05-05 10:35 28.65095 30.15684 38000 ft 488 kts 303°
2026-05-05 10:36 28.68799 30.09271 38000 ft 488 kts 303°
2026-05-05 10:36 28.72528 30.02805 38000 ft 488 kts 303°
2026-05-05 10:37 28.76247 29.96344 38000 ft 488 kts 303°
2026-05-05 10:37 28.79965 29.89877 38000 ft 488 kts 303°
2026-05-05 10:38 28.83683 29.83399 38000 ft 488 kts 303°
2026-05-05 10:38 28.87400 29.76912 38000 ft 488 kts 303°
2026-05-05 10:39 28.91114 29.70422 38000 ft 488 kts 303°
2026-05-05 10:39 28.94819 29.63938 38000 ft 488 kts 303°
2026-05-05 10:40 28.98502 29.57481 38000 ft 488 kts 303°
2026-05-05 10:40 29.02206 29.50978 38000 ft 488 kts 303°
2026-05-05 10:41 29.05907 29.44469 38000 ft 488 kts 303°
2026-05-05 10:41 29.09604 29.37959 38000 ft 488 kts 303°
2026-05-05 10:42 29.13896 29.31970 38000 ft 488 kts 317°
2026-05-05 10:42 29.16488 29.29454 38001 ft 488 kts 321°
2026-05-05 10:43 29.21828 29.24731 38000 ft 489 kts 323°
2026-05-05 10:43 29.27281 29.20077 38000 ft 489 kts 323°
2026-05-05 10:44 29.32723 29.15409 38000 ft 489 kts 323°
2026-05-05 10:44 29.38144 29.10711 38000 ft 488 kts 322°
2026-05-05 10:45 29.43562 29.05991 38000 ft 488 kts 322°
2026-05-05 10:45 29.48971 29.01260 38000 ft 488 kts 322°
2026-05-05 10:46 29.54367 28.96533 38000 ft 488 kts 322°
2026-05-05 10:46 29.59771 28.91796 38000 ft 488 kts 322°
2026-05-05 10:47 29.65169 28.87057 38000 ft 488 kts 322°
2026-05-05 10:47 29.70529 28.82346 38000 ft 488 kts 322°
2026-05-05 10:48 29.75924 28.77597 38000 ft 488 kts 322°
2026-05-05 10:48 29.81310 28.72850 38000 ft 488 kts 322°
2026-05-05 10:49 29.86702 28.68090 38000 ft 488 kts 322°
2026-05-05 10:49 29.92080 28.63336 38000 ft 487 kts 322°
2026-05-05 10:50 29.97466 28.58568 38000 ft 487 kts 322°
2026-05-05 10:50 30.02844 28.53802 38000 ft 487 kts 322°
2026-05-05 10:51 30.08212 28.49037 38000 ft 487 kts 322°
2026-05-05 10:51 30.13586 28.44260 38000 ft 487 kts 322°
2026-05-05 10:52 30.18919 28.39512 38000 ft 487 kts 322°
2026-05-05 10:52 30.24287 28.34727 38000 ft 487 kts 322°
2026-05-05 10:53 30.29657 28.29934 38000 ft 487 kts 322°
2026-05-05 10:53 30.35018 28.25142 38000 ft 486 kts 322°
2026-05-05 10:54 30.40375 28.20346 38000 ft 487 kts 322°
2026-05-05 10:54 30.45742 28.15534 38000 ft 487 kts 322°
2026-05-05 10:55 30.51109 28.10716 38000 ft 488 kts 322°
2026-05-05 10:55 30.56476 28.05891 38000 ft 488 kts 322°
2026-05-05 10:56 30.61813 28.01086 38000 ft 488 kts 322°
2026-05-05 10:56 30.67176 27.96250 38000 ft 488 kts 322°
2026-05-05 10:57 30.72537 27.91410 38000 ft 488 kts 322°
2026-05-05 10:57 30.77901 27.86559 38000 ft 488 kts 322°
2026-05-05 10:58 30.83263 27.81704 38000 ft 488 kts 322°
2026-05-05 10:58 30.88622 27.76844 38000 ft 488 kts 322°
2026-05-05 10:59 30.93977 27.71981 38000 ft 488 kts 322°
2026-05-05 10:59 30.99334 27.67108 38000 ft 488 kts 322°
2026-05-05 11:00 31.04651 27.62265 38000 ft 488 kts 322°
2026-05-05 11:00 31.09998 27.57386 38000 ft 488 kts 321°
2026-05-05 11:01 31.14766 27.51765 38003 ft 487 kts 307°
2026-05-05 11:01 31.18716 27.45324 38000 ft 487 kts 304°
2026-05-05 11:02 31.22491 27.38756 38000 ft 487 kts 303°
2026-05-05 11:02 31.26246 27.32188 38000 ft 487 kts 304°
2026-05-05 11:03 31.30687 27.26297 38000 ft 487 kts 320°
2026-05-05 11:03 31.36475 27.22239 38000 ft 487 kts 339°
2026-05-05 11:04 31.43069 27.20460 38001 ft 487 kts 351°
2026-05-05 11:04 31.49812 27.19476 38000 ft 488 kts 353°
2026-05-05 11:05 31.55425 27.18738 38000 ft 488 kts 353°
2026-05-05 11:05 31.63305 27.17643 38000 ft 488 kts 353°
2026-05-05 11:06 31.70008 27.16666 38000 ft 488 kts 352°
2026-05-05 11:06 31.75649 27.15832 38000 ft 488 kts 352°
2026-05-05 11:07 31.82388 27.14834 38000 ft 488 kts 352°
2026-05-05 11:07 31.89092 27.13843 38000 ft 488 kts 352°
2026-05-05 11:08 31.95826 27.12846 38000 ft 488 kts 352°
2026-05-05 11:08 32.02571 27.11847 38000 ft 488 kts 352°
2026-05-05 11:09 32.09304 27.10848 38000 ft 488 kts 352°
2026-05-05 11:09 32.16034 27.09848 38000 ft 488 kts 352°
2026-05-05 11:10 32.22779 27.08844 38000 ft 488 kts 352°
2026-05-05 11:10 32.29523 27.07839 38000 ft 488 kts 352°
2026-05-05 11:11 32.36255 27.06834 38000 ft 488 kts 352°
2026-05-05 11:11 32.42999 27.05826 38000 ft 488 kts 352°
2026-05-05 11:12 32.49735 27.04817 38000 ft 488 kts 352°
2026-05-05 11:12 32.56471 27.03807 38000 ft 488 kts 352°
2026-05-05 11:13 32.63174 27.02801 38000 ft 488 kts 352°
2026-05-05 11:13 32.69909 27.01788 38000 ft 488 kts 352°
2026-05-05 11:14 32.76650 27.00772 38000 ft 488 kts 352°
2026-05-05 11:14 32.83389 26.99756 38000 ft 488 kts 352°
2026-05-05 11:15 32.90129 26.98737 38000 ft 488 kts 352°
2026-05-05 11:15 32.96866 26.97718 38000 ft 488 kts 352°
2026-05-05 11:16 33.03601 26.96687 38000 ft 488 kts 352°
2026-05-05 11:16 33.10292 26.95654 38000 ft 488 kts 352°
2026-05-05 11:17 33.17024 26.94613 38000 ft 488 kts 352°
2026-05-05 11:17 33.23766 26.93570 38000 ft 488 kts 352°
2026-05-05 11:18 33.30499 26.92527 38000 ft 488 kts 352°
2026-05-05 11:18 33.37225 26.91484 38000 ft 488 kts 352°
2026-05-05 11:19 33.43962 26.90438 38000 ft 488 kts 352°
2026-05-05 11:19 33.50696 26.89390 38000 ft 488 kts 352°
2026-05-05 11:20 33.57445 26.88338 38000 ft 488 kts 352°
2026-05-05 11:20 33.64133 26.87295 38000 ft 488 kts 352°
2026-05-05 11:21 33.70870 26.86241 38000 ft 488 kts 352°
2026-05-05 11:21 33.77614 26.85186 38000 ft 488 kts 352°
2026-05-05 11:22 33.84343 26.84131 38000 ft 488 kts 352°
2026-05-05 11:22 33.91087 26.83071 38000 ft 488 kts 352°
2026-05-05 11:23 33.97712 26.81616 37999 ft 487 kts 342°
2026-05-05 11:23 34.03803 26.78102 38003 ft 486 kts 325°
2026-05-05 11:24 34.09263 26.73286 38000 ft 487 kts 322°
2026-05-05 11:24 34.14597 26.68243 38000 ft 487 kts 321°
2026-05-05 11:25 34.19931 26.63194 38000 ft 487 kts 322°
2026-05-05 11:25 34.25279 26.58180 38000 ft 487 kts 322°
2026-05-05 11:26 34.30644 26.53171 38000 ft 487 kts 322°
2026-05-05 11:26 34.36003 26.48163 38000 ft 487 kts 322°
2026-05-05 11:27 34.41362 26.43144 38000 ft 487 kts 322°
2026-05-05 11:27 34.46719 26.38119 38000 ft 487 kts 322°
2026-05-05 11:28 34.52079 26.33080 38000 ft 487 kts 322°
2026-05-05 11:28 34.57424 26.28047 38000 ft 487 kts 322°
2026-05-05 11:29 34.62775 26.23000 38000 ft 487 kts 322°
2026-05-05 11:29 34.68122 26.17949 38000 ft 487 kts 322°
2026-05-05 11:30 34.73441 26.12917 38000 ft 487 kts 322°
2026-05-05 11:30 34.78785 26.07851 38000 ft 487 kts 322°
2026-05-05 11:31 34.84124 26.02782 38000 ft 487 kts 322°
2026-05-05 11:31 34.89462 25.97705 38000 ft 487 kts 322°
2026-05-05 11:32 34.94810 25.92609 38000 ft 487 kts 322°
2026-05-05 11:32 35.00152 25.87512 38000 ft 487 kts 322°
2026-05-05 11:33 35.05452 25.82445 37998 ft 488 kts 322°
2026-05-05 11:33 35.10803 25.77321 38000 ft 489 kts 321°
2026-05-05 11:34 35.16147 25.72195 38000 ft 487 kts 321°
2026-05-05 11:34 35.21485 25.67066 38000 ft 487 kts 321°
2026-05-05 11:35 35.26821 25.61930 37999 ft 489 kts 321°
2026-05-05 11:35 35.32172 25.56770 38001 ft 490 kts 321°
2026-05-05 11:36 35.37512 25.51613 37999 ft 487 kts 321°
2026-05-05 11:36 35.42828 25.46470 38000 ft 487 kts 321°
2026-05-05 11:37 35.48144 25.41317 38000 ft 487 kts 321°
2026-05-05 11:37 35.53427 25.36189 38000 ft 487 kts 321°
2026-05-05 11:38 35.58743 25.31018 38000 ft 487 kts 321°
2026-05-05 11:38 35.64051 25.25847 38000 ft 487 kts 321°
2026-05-05 11:39 35.69359 25.20667 38000 ft 487 kts 321°
2026-05-05 11:39 35.74667 25.15477 38000 ft 487 kts 321°
2026-05-05 11:40 35.79969 25.10284 38000 ft 487 kts 321°
2026-05-05 11:40 35.85240 25.05113 38000 ft 487 kts 321°
2026-05-05 11:41 35.90535 24.99908 38000 ft 487 kts 321°
2026-05-05 11:41 35.95827 24.94698 38000 ft 487 kts 321°
2026-05-05 11:42 36.01121 24.89477 38000 ft 487 kts 321°
2026-05-05 11:42 36.06411 24.84250 38000 ft 487 kts 321°
2026-05-05 11:43 36.11700 24.79015 38000 ft 487 kts 321°
2026-05-05 11:43 36.16984 24.73775 38000 ft 487 kts 321°
2026-05-05 11:44 36.22269 24.68526 38000 ft 487 kts 321°
2026-05-05 11:44 36.27554 24.63267 38000 ft 487 kts 321°
2026-05-05 11:45 36.32835 24.58002 38000 ft 487 kts 321°
2026-05-05 11:45 36.38111 24.52732 38000 ft 487 kts 321°
2026-05-05 11:46 36.43389 24.47452 38000 ft 487 kts 321°
2026-05-05 11:46 36.48661 24.42169 38000 ft 487 kts 321°
2026-05-05 11:47 36.53901 24.36907 38000 ft 487 kts 321°
2026-05-05 11:47 36.59171 24.31606 38000 ft 487 kts 321°
2026-05-05 11:48 36.67067 24.23646 38000 ft 487 kts 321°
2026-05-05 11:48 36.72329 24.18328 38000 ft 487 kts 321°
2026-05-05 11:49 36.77591 24.13001 38000 ft 487 kts 321°
2026-05-05 11:49 36.82848 24.07669 38000 ft 487 kts 321°
2026-05-05 11:50 36.88095 24.02339 38000 ft 487 kts 321°
2026-05-05 11:50 36.93318 23.97022 38000 ft 487 kts 320°
2026-05-05 11:51 36.98573 23.91664 38000 ft 487 kts 320°
2026-05-05 11:51 37.03819 23.86305 38000 ft 487 kts 320°
2026-05-05 11:52 37.08183 23.81838 38000 ft 487 kts 320°
2026-05-05 11:52 37.13440 23.76449 38000 ft 487 kts 320°
2026-05-05 11:53 37.18647 23.71102 38000 ft 487 kts 320°
2026-05-05 11:53 37.23884 23.65715 38000 ft 487 kts 320°
2026-05-05 11:54 37.29119 23.60318 38000 ft 487 kts 320°
2026-05-05 11:54 37.34363 23.54903 38000 ft 487 kts 320°
2026-05-05 11:55 37.39593 23.49492 38000 ft 487 kts 320°
2026-05-05 11:55 37.44820 23.44073 37999 ft 487 kts 320°
2026-05-05 11:56 37.50061 23.38630 38001 ft 490 kts 320°
2026-05-05 11:56 37.55273 23.33208 38000 ft 487 kts 320°
2026-05-05 11:57 37.60501 23.27758 38000 ft 487 kts 320°
2026-05-05 11:57 37.65723 23.22305 38000 ft 487 kts 320°
2026-05-05 11:58 37.70940 23.16845 38000 ft 487 kts 320°
2026-05-05 11:58 37.76158 23.11376 38000 ft 487 kts 320°
2026-05-05 11:59 37.81375 23.05896 37999 ft 489 kts 320°
2026-05-05 11:59 37.86579 23.00420 38000 ft 488 kts 320°
2026-05-05 12:00 37.91746 22.94828 37998 ft 487 kts 315°
2026-05-05 12:00 37.96046 22.88226 38000 ft 486 kts 306°
2026-05-05 12:01 37.99962 22.81221 38000 ft 486 kts 304°
2026-05-05 12:01 38.03802 22.74144 38000 ft 486 kts 304°
2026-05-05 12:02 38.07641 22.67084 38000 ft 486 kts 304°
2026-05-05 12:02 38.11478 22.60057 38000 ft 486 kts 304°
2026-05-05 12:03 38.15337 22.52995 38000 ft 486 kts 304°
2026-05-05 12:03 38.19194 22.45920 38000 ft 487 kts 304°
2026-05-05 12:04 38.23049 22.38834 38000 ft 486 kts 304°
2026-05-05 12:04 38.26891 22.31754 38000 ft 486 kts 304°
2026-05-05 12:05 38.30736 22.24653 38000 ft 486 kts 304°
2026-05-05 12:05 38.34551 22.17592 37999 ft 486 kts 304°
2026-05-05 12:06 38.38385 22.10480 37999 ft 487 kts 304°
2026-05-05 12:06 38.42222 22.03349 37998 ft 489 kts 304°
2026-05-05 12:07 38.46075 21.96171 37999 ft 490 kts 304°
2026-05-05 12:07 38.49930 21.88973 37999 ft 491 kts 304°
2026-05-05 12:08 38.53783 21.81762 38001 ft 493 kts 304°
2026-05-05 12:08 38.57638 21.74529 38000 ft 492 kts 304°
2026-05-05 12:09 38.61478 21.67305 37999 ft 490 kts 304°
2026-05-05 12:09 38.65287 21.60125 38000 ft 491 kts 304°
2026-05-05 12:10 38.69139 21.52850 38003 ft 495 kts 304°
2026-05-05 12:10 38.72984 21.45570 38000 ft 491 kts 304°
2026-05-05 12:11 38.76796 21.38335 38000 ft 489 kts 304°
2026-05-05 12:11 38.80595 21.31110 37999 ft 488 kts 304°
2026-05-05 12:12 38.84388 21.23881 38001 ft 489 kts 304°
2026-05-05 12:12 38.88160 21.16675 38000 ft 488 kts 303°
2026-05-05 12:13 38.91936 21.09446 38000 ft 487 kts 303°
2026-05-05 12:13 38.95704 21.02216 38000 ft 487 kts 303°
2026-05-05 12:14 38.99462 20.94988 38000 ft 486 kts 303°
2026-05-05 12:14 39.03225 20.87734 38000 ft 486 kts 303°
2026-05-05 12:15 39.06975 20.80489 38000 ft 486 kts 303°
2026-05-05 12:15 39.10721 20.73235 38000 ft 486 kts 303°
2026-05-05 12:16 39.14439 20.66020 37999 ft 487 kts 303°
2026-05-05 12:16 39.18196 20.58712 38000 ft 489 kts 303°
2026-05-05 12:17 39.21946 20.51401 38000 ft 489 kts 303°
2026-05-05 12:17 39.25687 20.44091 38000 ft 487 kts 303°
2026-05-05 12:18 39.29410 20.36800 37999 ft 486 kts 303°
2026-05-05 12:18 39.33117 20.29524 38002 ft 488 kts 303°
2026-05-05 12:19 39.36840 20.22198 38000 ft 487 kts 303°
2026-05-05 12:19 39.40545 20.14892 38000 ft 486 kts 303°
2026-05-05 12:20 39.44376 20.07667 37999 ft 486 kts 309°
2026-05-05 12:20 39.48947 20.01203 38000 ft 487 kts 314°
2026-05-05 12:21 39.53687 19.94932 38000 ft 487 kts 314°
2026-05-05 12:21 39.58444 19.88701 38000 ft 487 kts 314°
2026-05-05 12:22 39.63204 19.82428 38000 ft 487 kts 314°
2026-05-05 12:22 39.67940 19.76144 38000 ft 487 kts 314°
2026-05-05 12:23 39.72650 19.69873 38001 ft 488 kts 314°
2026-05-05 12:23 39.77381 19.63560 38000 ft 487 kts 314°
2026-05-05 12:24 39.82106 19.57245 38000 ft 487 kts 314°
2026-05-05 12:24 39.86829 19.50919 38000 ft 487 kts 314°
2026-05-05 12:25 39.91541 19.44594 38000 ft 487 kts 314°
2026-05-05 12:25 39.96232 19.38286 38000 ft 487 kts 314°
2026-05-05 12:26 40.00936 19.31945 38000 ft 487 kts 314°
2026-05-05 12:26 40.05642 19.25588 38000 ft 487 kts 314°
2026-05-05 12:27 40.10342 19.19227 38000 ft 487 kts 314°
2026-05-05 12:27 40.15039 19.12855 38000 ft 487 kts 314°
2026-05-05 12:28 40.19736 19.06471 38000 ft 487 kts 314°
2026-05-05 12:28 40.24419 19.00071 37999 ft 487 kts 313°
2026-05-05 12:29 40.28799 18.93329 38000 ft 486 kts 308°
2026-05-05 12:29 40.32988 18.86348 38000 ft 486 kts 308°
2026-05-05 12:30 40.37139 18.79427 38000 ft 486 kts 308°
2026-05-05 12:30 40.41359 18.72477 38000 ft 486 kts 308°
2026-05-05 12:31 40.45593 18.65535 38000 ft 486 kts 308°
2026-05-05 12:31 40.49823 18.58592 38000 ft 486 kts 308°
2026-05-05 12:32 40.54053 18.51629 38000 ft 486 kts 308°
2026-05-05 12:32 40.58015 18.44429 37999 ft 486 kts 299°
2026-05-05 12:33 40.60409 18.36153 38000 ft 486 kts 281°
2026-05-05 12:33 40.61291 18.27358 37999 ft 486 kts 281°
2026-05-05 12:34 40.63401 18.18989 37999 ft 486 kts 297°
2026-05-05 12:34 40.67466 18.11907 38000 ft 486 kts 317°
2026-05-05 12:35 40.73108 18.07068 38000 ft 486 kts 337°
2026-05-05 12:35 40.79223 18.03260 37999 ft 487 kts 328°
2026-05-05 12:36 40.84498 17.97697 38001 ft 486 kts 317°
2026-05-05 12:36 40.89340 17.91439 38000 ft 487 kts 314°
2026-05-05 12:37 40.94040 17.85074 38000 ft 487 kts 314°
2026-05-05 12:37 40.98770 17.78666 38000 ft 487 kts 314°
2026-05-05 12:38 41.03511 17.72284 38000 ft 487 kts 314°
2026-05-05 12:38 41.08271 17.65885 38000 ft 487 kts 314°
2026-05-05 12:39 41.13026 17.59484 38000 ft 487 kts 314°
2026-05-05 12:39 41.17747 17.53113 38000 ft 487 kts 314°
2026-05-05 12:40 41.22482 17.46706 38000 ft 487 kts 314°
2026-05-05 12:40 41.27223 17.40277 38000 ft 487 kts 314°
2026-05-05 12:41 41.31961 17.33838 38000 ft 487 kts 314°
2026-05-05 12:41 41.35897 17.28479 38000 ft 487 kts 314°
2026-05-05 12:42 41.40629 17.22022 38000 ft 487 kts 314°
2026-05-05 12:42 41.45358 17.15554 38000 ft 487 kts 314°
2026-05-05 12:43 41.50078 17.09085 38000 ft 487 kts 314°
2026-05-05 12:43 41.54793 17.02608 38000 ft 487 kts 314°
2026-05-05 12:44 41.59511 16.96113 38000 ft 487 kts 314°
2026-05-05 12:44 41.64221 16.89615 38000 ft 487 kts 314°
2026-05-05 12:45 41.68894 16.83152 38000 ft 487 kts 314°
2026-05-05 12:45 41.73595 16.76637 38000 ft 487 kts 314°
2026-05-05 12:46 41.78303 16.70097 38000 ft 487 kts 314°
2026-05-05 12:46 41.83005 16.63551 38000 ft 487 kts 314°
2026-05-05 12:47 41.87702 16.56997 38000 ft 487 kts 314°
2026-05-05 12:47 41.92391 16.50439 38000 ft 487 kts 314°
2026-05-05 12:48 41.97044 16.43917 38000 ft 487 kts 313°
2026-05-05 12:48 42.01719 16.37350 38000 ft 487 kts 313°
2026-05-05 12:49 42.06405 16.30751 38000 ft 487 kts 313°
2026-05-05 12:49 42.11078 16.24156 38000 ft 487 kts 313°
2026-05-05 12:50 42.15744 16.17557 38000 ft 487 kts 313°
2026-05-05 12:50 42.20413 16.10937 38000 ft 486 kts 313°
2026-05-05 12:51 42.25073 16.04315 38000 ft 487 kts 313°
2026-05-05 12:51 42.29730 15.97682 38000 ft 487 kts 313°
2026-05-05 12:52 42.34389 15.91031 38000 ft 487 kts 313°
2026-05-05 12:52 42.39039 15.84377 38000 ft 487 kts 313°
2026-05-05 12:53 42.43666 15.77742 38000 ft 487 kts 313°
2026-05-05 12:53 42.48306 15.71072 38000 ft 487 kts 313°
2026-05-05 12:54 42.55264 15.61040 38000 ft 487 kts 313°
2026-05-05 12:55 42.59894 15.54347 38000 ft 487 kts 313°
2026-05-05 12:55 42.64522 15.47640 38000 ft 487 kts 313°
2026-05-05 12:56 42.69149 15.40919 38000 ft 487 kts 313°
2026-05-05 12:56 42.73769 15.34192 38000 ft 487 kts 313°
2026-05-05 12:57 42.78356 15.27497 38000 ft 487 kts 313°
2026-05-05 12:57 42.82976 15.20739 38000 ft 487 kts 313°
2026-05-05 12:58 42.87582 15.13985 38000 ft 487 kts 313°
2026-05-05 12:58 42.92189 15.07214 38000 ft 487 kts 313°
2026-05-05 12:59 42.96794 15.00429 38000 ft 487 kts 313°
2026-05-05 12:59 43.01390 14.93643 38000 ft 487 kts 313°
2026-05-05 13:00 43.08275 14.83446 38000 ft 487 kts 312°
2026-05-05 13:01 43.17418 14.69848 38000 ft 487 kts 312°
2026-05-05 13:01 43.21997 14.63013 38000 ft 487 kts 312°
2026-05-05 13:02 43.26571 14.56169 38000 ft 487 kts 312°
2026-05-05 13:02 43.31144 14.49312 38000 ft 487 kts 312°
2026-05-05 13:03 43.35714 14.42442 38000 ft 487 kts 312°
2026-05-05 13:03 43.40276 14.35567 38000 ft 487 kts 312°
2026-05-05 13:04 43.44807 14.28722 38000 ft 487 kts 312°
2026-05-05 13:04 43.49393 14.21881 38000 ft 487 kts 314°
2026-05-05 13:05 43.54265 14.15401 38000 ft 487 kts 317°
2026-05-05 13:05 43.59245 14.09073 38000 ft 487 kts 317°
2026-05-05 13:06 43.64205 14.02708 38000 ft 487 kts 316°
2026-05-05 13:06 43.69129 13.96299 38000 ft 486 kts 316°
2026-05-05 13:07 43.74046 13.89852 38000 ft 487 kts 316°
2026-05-05 13:07 43.78957 13.83395 38000 ft 487 kts 316°
2026-05-05 13:08 43.83835 13.76971 38000 ft 487 kts 316°
2026-05-05 13:08 43.88744 13.70492 38000 ft 487 kts 316°
2026-05-05 13:09 43.93643 13.64012 38000 ft 487 kts 316°
2026-05-05 13:09 43.98543 13.57514 38000 ft 487 kts 316°
2026-05-05 13:10 44.03430 13.51018 38000 ft 487 kts 316°
2026-05-05 13:10 44.08328 13.44491 38000 ft 487 kts 316°
2026-05-05 13:11 44.13179 13.38011 38000 ft 487 kts 316°
2026-05-05 13:11 44.18053 13.31485 38000 ft 487 kts 316°
2026-05-05 13:12 44.22937 13.24930 38000 ft 487 kts 316°
2026-05-05 13:12 44.27816 13.18367 38000 ft 487 kts 316°
2026-05-05 13:13 44.32682 13.11804 38000 ft 487 kts 316°
2026-05-05 13:13 44.37551 13.05221 38000 ft 487 kts 316°
2026-05-05 13:14 44.42420 12.98623 38000 ft 487 kts 315°
2026-05-05 13:14 44.47241 12.92072 38000 ft 487 kts 315°
2026-05-05 13:15 44.52103 12.85451 38000 ft 487 kts 315°
2026-05-05 13:15 44.56952 12.78830 38000 ft 487 kts 315°
2026-05-05 13:16 44.61802 12.72193 38000 ft 487 kts 315°
2026-05-05 13:16 44.66645 12.65549 38000 ft 487 kts 315°
2026-05-05 13:17 44.71489 12.58886 38000 ft 487 kts 315°
2026-05-05 13:17 44.76322 12.52222 38000 ft 487 kts 315°
2026-05-05 13:18 44.81160 12.45536 38000 ft 487 kts 315°
2026-05-05 13:18 44.85986 12.38848 38000 ft 487 kts 315°
2026-05-05 13:19 44.90778 12.32192 38000 ft 487 kts 315°
2026-05-05 13:19 44.95602 12.25474 38000 ft 487 kts 315°
2026-05-05 13:20 45.00420 12.18748 38000 ft 487 kts 315°
2026-05-05 13:20 45.05233 12.12012 38000 ft 487 kts 315°
2026-05-05 13:21 45.10043 12.05263 38000 ft 487 kts 315°
2026-05-05 13:21 45.14817 11.98548 38000 ft 487 kts 315°
2026-05-05 13:22 45.19616 11.91782 38000 ft 487 kts 315°
2026-05-05 13:22 45.24408 11.85008 38000 ft 487 kts 315°
2026-05-05 13:23 45.29201 11.78214 38000 ft 487 kts 315°
2026-05-05 13:23 45.33985 11.71417 38000 ft 487 kts 315°
2026-05-05 13:24 45.38778 11.64590 38000 ft 487 kts 315°
2026-05-05 13:24 45.43563 11.57757 38000 ft 487 kts 315°
2026-05-05 13:25 45.48346 11.50910 38001 ft 488 kts 314°
2026-05-05 13:25 45.53118 11.44060 38000 ft 487 kts 314°
2026-05-05 13:26 45.57895 11.37186 38000 ft 487 kts 314°
2026-05-05 13:26 45.62669 11.30299 38000 ft 488 kts 314°
2026-05-05 13:27 45.67423 11.23423 38000 ft 490 kts 314°
2026-05-05 13:27 45.72220 11.16465 37998 ft 492 kts 314°
2026-05-05 13:28 45.77037 11.09463 38000 ft 495 kts 314°
2026-05-05 13:28 45.81872 11.02415 38001 ft 495 kts 314°
2026-05-05 13:29 45.85867 10.96577 37998 ft 491 kts 314°
2026-05-05 13:29 45.90645 10.89577 38004 ft 492 kts 314°
2026-05-05 13:30 45.95423 10.82561 37997 ft 490 kts 314°
2026-05-05 13:30 46.00214 10.75505 38000 ft 495 kts 314°
2026-05-05 13:31 46.05024 10.68404 37998 ft 496 kts 314°
2026-05-05 13:31 46.09845 10.61267 37998 ft 498 kts 314°
2026-05-05 13:32 46.14661 10.54119 38000 ft 502 kts 314°
2026-05-05 13:32 46.19533 10.46870 38004 ft 504 kts 314°
2026-05-05 13:33 46.24410 10.39591 38002 ft 501 kts 314°
2026-05-05 13:33 46.29236 10.32370 38000 ft 500 kts 314°
2026-05-05 13:34 46.34070 10.25118 38000 ft 499 kts 314°
2026-05-05 13:34 46.38891 10.17863 38000 ft 501 kts 314°
2026-05-05 13:35 46.43739 10.10549 37998 ft 504 kts 314°
2026-05-05 13:35 46.48592 10.03168 37999 ft 505 kts 313°
2026-05-05 13:36 46.53264 9.95605 37999 ft 505 kts 311°
2026-05-05 13:36 46.57875 9.87918 37997 ft 503 kts 311°
2026-05-05 13:37 46.62482 9.80245 38001 ft 504 kts 311°
2026-05-05 13:37 46.67099 9.72580 38000 ft 502 kts 311°
2026-05-05 13:38 46.71701 9.64938 37997 ft 499 kts 311°
2026-05-05 13:38 46.76286 9.57304 38004 ft 503 kts 311°
2026-05-05 13:39 46.80845 9.49689 37997 ft 499 kts 311°
2026-05-05 13:39 46.85394 9.42070 37997 ft 495 kts 311°
2026-05-05 13:40 46.89922 9.34462 37998 ft 498 kts 311°
2026-05-05 13:40 46.94485 9.26775 38000 ft 501 kts 310°
2026-05-05 13:41 46.99057 9.19052 37999 ft 501 kts 310°
2026-05-05 13:41 47.03615 9.11331 38000 ft 500 kts 310°
2026-05-05 13:42 47.07455 9.04810 38001 ft 497 kts 310°
2026-05-05 13:42 47.11957 8.97140 37999 ft 495 kts 310°
2026-05-05 13:43 47.15718 8.89501 38000 ft 495 kts 298°
2026-05-05 13:43 47.18405 8.80454 38000 ft 492 kts 291°
2026-05-05 13:44 47.20644 8.71676 38000 ft 490 kts 290°
2026-05-05 13:44 47.22975 8.62259 38000 ft 490 kts 290°
2026-05-05 13:45 47.25315 8.52877 38000 ft 491 kts 290°
2026-05-05 13:45 47.27702 8.43381 38001 ft 491 kts 290°
2026-05-05 13:46 47.30052 8.34040 37999 ft 489 kts 290°
2026-05-05 13:46 47.32407 8.24618 38000 ft 490 kts 290°
2026-05-05 13:47 47.34750 8.15180 38000 ft 490 kts 290°
2026-05-05 13:47 47.37081 8.05743 38000 ft 489 kts 290°
2026-05-05 13:48 47.39403 7.96309 38000 ft 489 kts 290°
2026-05-05 13:48 47.41722 7.86851 38000 ft 491 kts 290°
2026-05-05 13:49 47.42490 7.83707 38000 ft 491 kts 290°
2026-05-05 13:49 47.43303 7.80377 38000 ft 491 kts 290°
2026-05-05 13:50 47.45609 7.70905 37999 ft 490 kts 289°
2026-05-05 13:50 47.47511 7.61490 38002 ft 490 kts 284°
2026-05-05 13:51 47.49181 7.51722 38000 ft 489 kts 284°
2026-05-05 13:51 47.50782 7.42024 38000 ft 489 kts 283°
2026-05-05 13:52 47.52390 7.32243 38000 ft 489 kts 283°
2026-05-05 13:52 47.53998 7.22460 38000 ft 489 kts 283°
2026-05-05 13:53 47.55600 7.12676 38000 ft 489 kts 283°
2026-05-05 13:53 47.57193 7.02894 38000 ft 489 kts 283°
2026-05-05 13:54 47.58781 6.93084 38000 ft 489 kts 283°
2026-05-05 13:54 47.60356 6.83296 38000 ft 489 kts 283°
2026-05-05 13:55 47.61925 6.73486 38000 ft 489 kts 283°
2026-05-05 13:55 47.63483 6.63687 38000 ft 489 kts 283°
2026-05-05 13:56 47.65037 6.53855 38000 ft 489 kts 283°
2026-05-05 13:56 47.66579 6.44040 38000 ft 488 kts 283°
2026-05-05 13:57 47.68103 6.34280 38000 ft 488 kts 283°
2026-05-05 13:57 47.69778 6.24516 38000 ft 488 kts 286°
2026-05-05 13:58 47.71824 6.14900 38000 ft 488 kts 288°
2026-05-05 13:58 47.73942 6.05321 38000 ft 488 kts 288°
2026-05-05 13:59 47.77029 5.90905 38000 ft 488 kts 287°
2026-05-05 14:00 47.79712 5.78066 38000 ft 488 kts 287°
2026-05-05 14:00 47.82054 5.66783 38000 ft 488 kts 287°
2026-05-05 14:01 47.84038 5.57183 38000 ft 488 kts 287°
2026-05-05 14:01 47.86027 5.47519 38000 ft 488 kts 287°
2026-05-05 14:02 47.88010 5.37837 38000 ft 489 kts 287°
2026-05-05 14:02 47.90187 5.28236 37999 ft 489 kts 294°
2026-05-05 14:03 47.93807 5.19735 38004 ft 489 kts 309°
2026-05-05 14:03 47.98293 5.12071 38000 ft 489 kts 312°
2026-05-05 14:04 48.02899 5.04590 38000 ft 489 kts 312°
2026-05-05 14:04 48.07496 4.97092 38000 ft 489 kts 312°
2026-05-05 14:05 48.12058 4.89550 38000 ft 489 kts 311°
2026-05-05 14:05 48.16601 4.81982 38000 ft 488 kts 311°
2026-05-05 14:06 48.21134 4.74405 38000 ft 488 kts 311°
2026-05-05 14:06 48.25630 4.66871 38000 ft 488 kts 311°
2026-05-05 14:07 48.30154 4.59271 38000 ft 488 kts 311°
2026-05-05 14:07 48.34670 4.51662 38000 ft 488 kts 311°
2026-05-05 14:08 48.39179 4.44041 38000 ft 487 kts 311°
2026-05-05 14:08 48.43687 4.36401 38000 ft 487 kts 311°
2026-05-05 14:09 48.48186 4.28756 38000 ft 487 kts 311°
2026-05-05 14:09 48.52684 4.21087 38000 ft 487 kts 311°
2026-05-05 14:10 48.57169 4.13422 38000 ft 487 kts 311°
2026-05-05 14:10 48.61624 4.05783 38000 ft 487 kts 311°
2026-05-05 14:11 48.66098 3.98089 38000 ft 487 kts 311°
2026-05-05 14:11 48.70574 3.90371 38000 ft 487 kts 311°
2026-05-05 14:12 48.75164 3.82826 38000 ft 487 kts 314°
2026-05-05 14:12 48.80018 3.75631 38000 ft 488 kts 316°
2026-05-05 14:13 48.84922 3.68490 38000 ft 488 kts 316°
2026-05-05 14:13 48.89786 3.61298 38000 ft 488 kts 315°
2026-05-05 14:14 48.94626 3.54053 38000 ft 488 kts 315°
2026-05-05 14:14 48.99423 3.46831 38000 ft 488 kts 315°
2026-05-05 14:15 49.04245 3.39552 38000 ft 488 kts 315°
2026-05-05 14:15 49.09065 3.32259 38000 ft 488 kts 315°
2026-05-05 14:16 49.13065 3.26191 38000 ft 488 kts 315°
2026-05-05 14:16 49.17877 3.18874 38000 ft 488 kts 315°
2026-05-05 14:17 49.22683 3.11544 38000 ft 487 kts 315°
2026-05-05 14:17 49.27483 3.04201 38000 ft 488 kts 315°
2026-05-05 14:18 49.32278 2.96844 38000 ft 488 kts 315°
2026-05-05 14:18 49.37068 2.89475 38000 ft 487 kts 315°
2026-05-05 14:19 49.41851 2.82094 38000 ft 487 kts 314°
2026-05-05 14:19 49.46624 2.74706 38000 ft 487 kts 314°
2026-05-05 14:20 49.51365 2.67347 38000 ft 487 kts 314°
2026-05-05 14:20 49.56135 2.59922 38000 ft 487 kts 314°
2026-05-05 14:21 49.60885 2.52459 37999 ft 487 kts 313°
2026-05-05 14:21 49.65369 2.44621 38000 ft 487 kts 310°
2026-05-05 14:22 49.69697 2.36583 38000 ft 487 kts 309°
2026-05-05 14:22 49.74043 2.28518 38000 ft 487 kts 310°
2026-05-05 14:23 49.78406 2.20497 38000 ft 487 kts 310°
2026-05-05 14:23 49.82777 2.12478 37999 ft 487 kts 310°
2026-05-05 14:24 49.84957 2.08472 37798 ft 486 kts 310°
2026-05-05 14:24 49.87140 2.04452 37553 ft 485 kts 310°
2026-05-05 14:24 49.89318 2.00436 37303 ft 485 kts 310°
2026-05-05 14:24 49.91492 1.96420 37059 ft 485 kts 310°
2026-05-05 14:25 49.93660 1.92409 36805 ft 485 kts 310°
2026-05-05 14:25 49.95801 1.88440 36565 ft 485 kts 310°
2026-05-05 14:25 49.97967 1.84420 36331 ft 485 kts 310°
2026-05-05 14:25 50.00137 1.80384 36072 ft 485 kts 309°
2026-05-05 14:26 50.02303 1.76350 35818 ft 486 kts 309°
2026-05-05 14:26 50.04461 1.72327 35446 ft 482 kts 309°
2026-05-05 14:26 50.06647 1.68358 34789 ft 482 kts 314°
2026-05-05 14:26 50.09109 1.64786 34261 ft 484 kts 318°
2026-05-05 14:27 50.11645 1.61292 34024 ft 488 kts 318°
2026-05-05 14:27 50.14206 1.57793 33999 ft 490 kts 319°
2026-05-05 14:27 50.19324 1.50814 33336 ft 486 kts 319°
2026-05-05 14:28 50.21893 1.47310 32302 ft 493 kts 319°
2026-05-05 14:28 50.24455 1.43811 31287 ft 499 kts 319°
2026-05-05 14:28 50.27111 1.40178 30308 ft 502 kts 319°
2026-05-05 14:28 50.29753 1.36560 29340 ft 505 kts 319°
2026-05-05 14:29 50.32383 1.32953 28573 ft 500 kts 319°
2026-05-05 14:29 50.34946 1.29434 27457 ft 482 kts 319°
2026-05-05 14:29 50.37420 1.26031 25840 ft 478 kts 318°
2026-05-05 14:29 50.39925 1.22580 24731 ft 477 kts 318°
2026-05-05 14:30 50.42360 1.19221 24055 ft 457 kts 318°
2026-05-05 14:30 50.44747 1.15923 23740 ft 456 kts 318°
2026-05-05 14:30 50.47110 1.12654 23218 ft 450 kts 318°
2026-05-05 14:30 50.49456 1.09404 22404 ft 451 kts 318°
2026-05-05 14:31 50.51749 1.06085 22015 ft 442 kts 315°
2026-05-05 14:31 50.53856 1.02643 21754 ft 430 kts 313°
2026-05-05 14:31 50.55867 0.99252 21504 ft 419 kts 313°
2026-05-05 14:31 50.57833 0.95925 21250 ft 409 kts 313°
2026-05-05 14:32 50.59742 0.92693 20995 ft 399 kts 313°
2026-05-05 14:32 50.61574 0.89591 20739 ft 382 kts 313°
2026-05-05 14:32 50.63369 0.86551 20491 ft 374 kts 313°
2026-05-05 14:32 50.65138 0.83551 19979 ft 373 kts 313°
2026-05-05 14:33 50.66887 0.80577 19367 ft 376 kts 312°
2026-05-05 14:33 50.68601 0.77418 18911 ft 373 kts 309°
2026-05-05 14:33 50.70207 0.74289 18470 ft 371 kts 308°
2026-05-05 14:33 50.71812 0.71129 18095 ft 365 kts 308°
2026-05-05 14:34 50.73395 0.68015 18000 ft 361 kts 308°
2026-05-05 14:34 50.74966 0.64924 18006 ft 362 kts 308°
2026-05-05 14:34 50.76538 0.61833 17845 ft 355 kts 308°
2026-05-05 14:34 50.78039 0.58879 17581 ft 336 kts 308°
2026-05-05 14:35 50.79487 0.56028 17113 ft 333 kts 308°
2026-05-05 14:35 50.80927 0.53188 16580 ft 336 kts 308°
2026-05-05 14:35 50.82382 0.50319 16180 ft 334 kts 308°
2026-05-05 14:35 50.83826 0.47466 15785 ft 331 kts 308°
2026-05-05 14:36 50.85264 0.44626 15375 ft 330 kts 308°
2026-05-05 14:36 50.86690 0.41803 14973 ft 328 kts 308°
2026-05-05 14:36 50.88110 0.38991 14584 ft 325 kts 308°
2026-05-05 14:36 50.89519 0.36197 14164 ft 324 kts 308°
2026-05-05 14:37 50.90921 0.33415 13776 ft 321 kts 308°
2026-05-05 14:37 50.92301 0.30673 13512 ft 315 kts 308°
2026-05-05 14:37 50.93636 0.28019 13245 ft 298 kts 308°
2026-05-05 14:37 50.94884 0.25517 12930 ft 281 kts 308°
2026-05-05 14:38 50.96083 0.23090 12265 ft 280 kts 308°
2026-05-05 14:38 50.97270 0.20679 11689 ft 274 kts 308°
2026-05-05 14:38 50.98421 0.18339 11326 ft 262 kts 308°
2026-05-05 14:38 50.99501 0.16141 11156 ft 243 kts 308°
2026-05-05 14:39 51.00536 0.14033 11024 ft 240 kts 307°
2026-05-05 14:39 51.01434 0.11851 10889 ft 238 kts 295°
2026-05-05 14:39 51.01870 0.09356 10738 ft 231 kts 278°
2026-05-05 14:39 51.02030 0.06856 10508 ft 225 kts 275°
2026-05-05 14:40 51.02143 0.04404 10237 ft 222 kts 274°
2026-05-05 14:40 51.02252 0.01960 9991 ft 221 kts 274°
2026-05-05 14:40 51.02370 -0.00559 9753 ft 236 kts 274°
2026-05-05 14:40 51.02499 -0.03191 9473 ft 240 kts 274°
2026-05-05 14:41 51.02631 -0.05827 9205 ft 239 kts 274°
2026-05-05 14:41 51.02764 -0.08455 8940 ft 238 kts 274°
2026-05-05 14:41 51.02897 -0.11074 8677 ft 237 kts 274°
2026-05-05 14:41 51.03028 -0.13676 8417 ft 236 kts 274°
2026-05-05 14:42 51.03159 -0.16278 8088 ft 236 kts 274°
2026-05-05 14:42 51.03289 -0.18864 7763 ft 234 kts 274°
2026-05-05 14:42 51.03418 -0.21443 7442 ft 233 kts 274°
2026-05-05 14:42 51.03546 -0.24004 7116 ft 232 kts 274°
2026-05-05 14:43 51.03673 -0.26557 6784 ft 230 kts 274°
2026-05-05 14:43 51.03795 -0.29046 6457 ft 228 kts 274°
2026-05-05 14:43 51.03918 -0.31581 6133 ft 226 kts 274°
2026-05-05 14:43 51.04037 -0.34054 5812 ft 224 kts 274°
2026-05-05 14:44 51.04155 -0.36466 5490 ft 222 kts 274°
2026-05-05 14:44 51.04274 -0.38913 5156 ft 220 kts 274°
2026-05-05 14:44 51.04388 -0.41320 4883 ft 216 kts 274°
2026-05-05 14:44 51.04499 -0.43674 4716 ft 212 kts 274°
2026-05-05 14:45 51.04610 -0.46011 4584 ft 212 kts 274°
2026-05-05 14:45 51.04719 -0.48348 4461 ft 212 kts 274°
2026-05-05 14:45 51.04829 -0.50685 4338 ft 211 kts 274°
2026-05-05 14:45 51.04941 -0.53016 4206 ft 211 kts 274°
2026-05-05 14:46 51.05050 -0.55339 4095 ft 210 kts 274°
2026-05-05 14:46 51.05157 -0.57658 4052 ft 210 kts 274°
2026-05-05 14:46 51.05373 -0.59956 4047 ft 211 kts 286°
2026-05-05 14:46 51.06050 -0.61941 4046 ft 203 kts 311°
2026-05-05 14:47 51.07218 -0.63136 4049 ft 202 kts 342°
2026-05-05 14:47 51.08551 -0.63145 4055 ft 203 kts 15°
2026-05-05 14:47 51.09714 -0.61921 4057 ft 204 kts 49°
2026-05-05 14:47 51.10369 -0.59933 4051 ft 204 kts 72°
2026-05-05 14:48 51.10620 -0.57711 4065 ft 204 kts 83°
2026-05-05 14:48 51.10745 -0.55467 4052 ft 204 kts 85°
2026-05-05 14:48 51.10857 -0.53218 4053 ft 204 kts 85°
2026-05-05 14:48 51.10984 -0.50970 4064 ft 204 kts 84°
2026-05-05 14:49 51.11123 -0.48728 4061 ft 204 kts 84°
2026-05-05 14:49 51.11270 -0.46475 3973 ft 204 kts 83°
2026-05-05 14:49 51.11420 -0.44221 3563 ft 205 kts 84°
2026-05-05 14:49 51.11633 -0.41963 3000 ft 210 kts 79°
2026-05-05 14:50 51.11932 -0.39661 2419 ft 212 kts 77°
2026-05-05 14:50 51.12287 -0.37527 2315 ft 193 kts 75°
2026-05-05 14:50 51.12551 -0.35472 2078 ft 188 kts 79°
2026-05-05 14:50 51.12821 -0.33473 1825 ft 182 kts 77°
2026-05-05 14:51 51.13093 -0.31563 1582 ft 171 kts 77°
2026-05-05 14:51 51.13343 -0.29768 1357 ft 161 kts 77°
2026-05-05 14:51 51.13524 -0.28443 1190 ft 155 kts 77°
2026-05-05 14:51 51.13680 -0.27312 1066 ft 159 kts 77°
2026-05-05 14:52 51.13899 -0.25721 857 ft 158 kts 77°
2026-05-05 14:52 51.14103 -0.24227 676 ft 153 kts 77°
2026-05-05 14:52 51.14251 -0.23149 546 ft 148 kts 77°
2026-05-05 14:53 51.14325 -0.22611 470 ft 145 kts 77°
2026-05-05 14:55 51.15088 -0.17762 214 ft 0 kts
2026-05-05 14:55 51.15089 -0.17762 214 ft 1 kts
2026-05-05 14:55 51.15111 -0.17758 213 ft 5 kts
2026-05-05 14:56 51.15155 -0.17760 211 ft 7 kts 355°
2026-05-05 14:56 51.15213 -0.17767 216 ft 9 kts
2026-05-05 14:56 51.15260 -0.17700 218 ft 11 kts 69°
2026-05-05 14:56 51.15279 -0.17578 213 ft 12 kts 76°
2026-05-05 14:57 51.15295 -0.17453 216 ft 10 kts 79°
2026-05-05 14:57 51.15315 -0.17384 219 ft 5 kts 45°
2026-05-05 14:57 51.15356 -0.17365 219 ft 7 kts 358°
2026-05-05 14:57 51.15413 -0.17387 213 ft 10 kts 345°
2026-05-05 14:58 51.15484 -0.17412 213 ft 11 kts 348°
2026-05-05 14:58 51.15550 -0.17427 219 ft 8 kts
2026-05-05 14:58 51.15591 -0.17370 215 ft 9 kts 73°
2026-05-05 14:58 51.15605 -0.17272 222 ft 10 kts 77°
2026-05-05 14:59 51.15610 -0.17239 219 ft 2 kts 77°
2026-05-05 14:59 51.15615 -0.17203 217 ft 6 kts 77°
2026-05-05 14:59 51.15624 -0.17137 216 ft 7 kts 78°
2026-05-05 14:59 51.15636 -0.17054 215 ft 7 kts 77°
2026-05-05 15:00 51.15647 -0.16975 211 ft 8 kts 77°
2026-05-05 15:00 51.15656 -0.16913 216 ft 9 kts 77°
2026-05-05 15:00 51.15662 -0.16833 219 ft 4 kts 103°
2026-05-05 15:00 51.15642 -0.16796 217 ft 4 kts 143°
2026-05-05 15:01 51.15615 -0.16778 219 ft 1 kts 164°
2026-05-05 15:01 51.15609 -0.16777 218 ft 0 kts 167°